Regional Weather Roundup
Issued by NWS

Home | Current Version | Previous Version | Graphics & Text | Print | Product List | Glossary On
Versions: 1 2 3 4 5 6 7 8 9 10 11 12 13 14 15 16 17 18 19 20 21 22 23 24 25 26 27 28 29 30 31 32 33 34 35 36 37 38 39 40 41 42 43 44 45 46 47 48 49 50
000
ASUS45 KPSR 281210
RWRAZ

ARIZONA HOURLY REGIONAL WEATHER ROUNDUP
NATIONAL WEATHER SERVICE PHOENIX AZ
500 AM MST FRI AUG 28 2015

NOTE: FAIR INDICATES FEW OR NO CLOUDS BELOW 12,000 FEET WITH NO
SIGNIFICANT WEATHER AND/OR OBSTRUCTIONS TO VISIBILITY.

AZZ001>003-036-281300-
NORTHWEST ARIZONA

CITY           SKY/WX    TMP DP  RH WIND       PRES   REMARKS
BULLHEAD CITY  CLEAR     88  57  35 CALM      29.88R
KINGMAN        CLEAR     70  54  56 CALM      30.09R
6HR MIN TEMP:  70; 6HR MAX TEMP:  78;

$$

AZZ004>008-015-016-018-281300-
NORTH CENTRAL ARIZONA

CITY           SKY/WX    TMP DP  RH WIND       PRES   REMARKS
GRAND CANYON   CLEAR     48  43  82 CALM      30.33S
6HR MIN TEMP:  47; 6HR MAX TEMP:  55;

WILLIAMS       CLEAR     52  50  93 S8        30.38S
PRESCOTT       CLEAR     60  56  86 S5        30.21F
6HR MIN TEMP:  60; 6HR MAX TEMP:  69;

FLAGSTAFF      CLEAR     49  48  97 CALM      30.35S
6HR MIN TEMP:  49; 6HR MAX TEMP:  57;

PAYSON         PTCLDY    63  55  77 CALM      30.21S
PAGE           CLEAR     72  51  47 CALM      30.15S
6HR MIN TEMP:  71; 6HR MAX TEMP:  79;

$$

AZZ009>014-017-281300-
NORTHEAST ARIZONA

CITY           SKY/WX    TMP DP  RH WIND       PRES   REMARKS
WINSLOW        PTCLDY    60  57  89 CALM      30.21R
6HR MIN TEMP:  58; 6HR MAX TEMP:  67;

SAINT JOHNS    CLEAR     58  53  84 S5        30.24S
6HR MIN TEMP:  58; 6HR MAX TEMP:  64;

WINDOW ROCK    CLEAR     52  46  80 CALM      30.31S
6HR MIN TEMP:  50; 6HR MAX TEMP:  61;

SHOW LOW       PTCLDY    52  48  87 S3        30.30S
$$

AZZ023-281300-
GREATER PHOENIX AREA

CITY           SKY/WX    TMP DP  RH WIND       PRES   REMARKS
PHOENIX        PTCLDY    82  66  58 SE5       29.89S
6HR MIN TEMP:  82; 6HR MAX TEMP:  87;

BUCKEYE        CLEAR     77  70  78 NW5       29.89S
LUKE AFB       CLEAR     79  74  83 NW5       29.89S
6HR MIN TEMP:  79; 6HR MAX TEMP:  84;

DEER VALLEY    CLEAR     82  60  47 NE6       29.91S
6HR MIN TEMP:  82; 6HR MAX TEMP:  88;

SCOTTSDALE     CLEAR     80  65  59 CALM      29.93S
6HR MIN TEMP:  79; 6HR MAX TEMP:  87;

MESA-GATEWAY   PTCLDY    79  61  53 SE6       29.94S
$$

AZZ027-028-281300-
SOUTHWEST MARICOPA COUNTY AND PINAL COUNTY

CITY           SKY/WX    TMP DP  RH WIND       PRES   REMARKS
CASA GRANDE    CLEAR     77  63  61 CALM      29.92S
6HR MIN TEMP:  75; 6HR MAX TEMP:  86;

GILA BEND      FAIR      83  62  47 E2        29.86S
6HR MIN TEMP:  83; 6HR MAX TEMP:  90;

$$

AZZ503-504-507>509-281300-
SOUTHEAST ARIZONA

CITY           SKY/WX    TMP DP  RH WIND       PRES   REMARKS
TUCSON         MOCLDY    77  63  61 SE7       30.03S
6HR MIN TEMP:  77; 6HR MAX TEMP:  83;

DAVIS-MONTHAN  CLEAR     74  64  70 E3        30.01S
6HR MIN TEMP:  74; 6HR MAX TEMP:  79;

NOGALES        MOCLDY    68  58  70 N3        30.10S
6HR MIN TEMP:  68; 6HR MAX TEMP:  75;

SIERRA VISTA   CLOUDY    69  60  73 W5        30.17R
6HR MIN TEMP:  66; 6HR MAX TEMP:  74; 6HR PCP: TRACE;

DOUGLAS        CLOUDY    66  60  81 NW5       30.12S
6HR MIN TEMP:  66; 6HR MAX TEMP:  71;

SAFFORD        PTCLDY    67  65  93 CALM      30.04S
6HR MIN TEMP:  67; 6HR MAX TEMP:  73;

$$

AZZ020-021-025-026-031-281300-
SOUTHWEST ARIZONA

CITY           SKY/WX    TMP DP  RH WIND       PRES   REMARKS
YUMA           CLEAR     89  70  53 S7        29.81F
6HR MIN TEMP:  89; 6HR MAX TEMP:  95;

$$

CAZ031-033-041-043-047-048-061-281300-
SOUTHERN CALIFORNIA

CITY           SKY/WX    TMP DP  RH WIND       PRES   REMARKS
DOWNTOWN L.A.  CLEAR     74  65  73 CALM      29.87S
6HR MIN TEMP:  73; 6HR MAX TEMP:  76;

L.A. AIRPORT   PTCLDY    73  67  81 CALM      29.88S
6HR MIN TEMP:  72; 6HR MAX TEMP:  76;

SAN DIEGO      CLEAR     74  68  81 NW3       29.88F
6HR MIN TEMP:  74; 6HR MAX TEMP:  77;

BURBANK        PTCLDY    76  55  48 CALM      29.90S
6HR MIN TEMP:  76; 6HR MAX TEMP:  80;

ONTARIO        CLEAR     77  57  50 CALM      29.91S
6HR MIN TEMP:  75; 6HR MAX TEMP:  83;

RIVERSIDE      CLEAR     74  59  59 CALM      29.91S
6HR MIN TEMP:  74; 6HR MAX TEMP:  82;

PALM SPRINGS   CLEAR     92  50  23 NW10      29.84F
6HR MIN TEMP:  90; 6HR MAX TEMP:  98;

EL CENTRO NAS  CLEAR     84  68  58 E10       29.81R
6HR MIN TEMP:  83; 6HR MAX TEMP:  97;

IMPERIAL       CLEAR     88  70  55 E8        29.79R
6HR MIN TEMP:  87; 6HR MAX TEMP:  98;

BLYTHE         CLEAR     86  64  47 E5        29.83R
6HR MIN TEMP:  86; 6HR MAX TEMP:  96;

NEEDLES        CLEAR     89  59  36 SW3       29.88R
6HR MIN TEMP:  89; 6HR MAX TEMP:  98;

$$

NVZ020-UTZ003-281300-
SOUTHERN NEVADA-UTAH

CITY           SKY/WX    TMP DP  RH WIND       PRES   REMARKS
LAS VEGAS      PTCLDY    83  53  35 S3        29.94R
6HR MIN TEMP:  83; 6HR MAX TEMP:  92;

SALT LAKE CITY CLEAR     67  51  56 SE10      30.16F
6HR MIN TEMP:  67; 6HR MAX TEMP:  75;

$$

NMZ009-TXZ055-281300-
NEW MEXICO-WEST TEXAS

CITY           SKY/WX    TMP DP  RH WIND       PRES   REMARKS
ALBUQUERQUE    PTCLDY    65  56  72 CALM      30.20S
6HR MIN TEMP:  64; 6HR MAX TEMP:  70;

EL PASO        MOCLDY    74  57  55 N3        30.06R
6HR MIN TEMP:  73; 6HR MAX TEMP:  84;

$$


........................KEY........................
SKY/WX - SKY CONDITION/WEATHER
TMP    - TEMPERATURE IN FAHRENHEIT
DP     - DEW POINT IN FAHRENHEIT
RH     - RELATIVE HUMIDITY IN PERCENT
WIND   - DIRECTION AND SPEED IN MILES PER HOUR (MPH)
VRB    - VARIABLE WIND DIRECTION
PRES   - MEAN SEA LEVEL PRESSURE IN INCHES OF MERCURY
         F - FALLING PRESSURE   R - RISING PRESSURE
         S - STEADY PRESSURE
VSB    - VISIBILITY IN MILES
HX     - HEAT INDEX IN FAHRENHEIT
WCI    - WIND CHILL INDEX IN FAHRENHEIT
TC     - TEMPERATURE IN CELSIUS WHICH IS ALSO KNOWN AS
         TEMPERATURE IN CENTIGRADE
AFB    - AIR FORCE BASE
         LUKE AFB IS LUKE AIR FORCE BASE
         DAVIS-MONTHAN IS DAVIS-MONTHAN AIR FORCE BASE
NAS    - NAVAL AIR STATION
         EL CENTRO NAS IS EL CENTRO NAVAL AIR STATION
N/A    - NOT AVAILABLE



USA.gov is the U.S. government's official web portal to all federal, state and local government web resources and services.